Address 0x2a98f5b29b205f9f18c7731486096516878589ed 15

 

Overview

Balance:
0.012412003354271442 ETH

ETH Value:
$20.15 (@ $1,623.33/ETH)

Token:
Txn Hash Method
Block
From
To
Value [Txn Fee]
0x61e53f7c21473af48fdefaee7c6e144205b523b4f1f1ea54f178109f86629ff1Deposit Stable566025272023-01-30 10:34:127 days 15 hrs ago0x2a98f5b29b205f9f18c7731486096516878589edOUT 0xa79d813912959acb06f131d3ec30482af5ad94000 ETH0.00083893
0xff17687ddbd8066c36f5c1ff15aade736f9c50f534a53f59799d97273b39244fSwap Exact AVAX ...566023622023-01-30 10:33:197 days 15 hrs ago0x2a98f5b29b205f9f18c7731486096516878589edOUT 0x7bfd7192e76d950832c77bb412aae841049d8d9b0.003 ETH0.00009393
0xe98f9dae1afd6fbccad7fc815774c205e4c4bca538fd67af6ec818d7e3d0713bApprove566022002023-01-30 10:32:257 days 15 hrs ago0x2a98f5b29b205f9f18c7731486096516878589edOUT 0xff970a61a04b1ca14834a43f5de4533ebddb5cc80 ETH0.00004139
0xcb85b593347156a82336a00767e454abed9ab109714cce65693e605ca10f3ce3Stake Bfr566013832023-01-30 10:28:037 days 15 hrs ago0x2a98f5b29b205f9f18c7731486096516878589edOUT 0xbd5fbb3b2610d34434e316e1babb9c3751567b670 ETH0.00008024
0xba8d814e3580f1ac6369d5893e10c9c0dd24a6ebcb1d617b67d9a0762d4aceecSwap Exact Token...566013232023-01-30 10:27:467 days 15 hrs ago0x2a98f5b29b205f9f18c7731486096516878589edOUT 0x7bfd7192e76d950832c77bb412aae841049d8d9b0 ETH0.00010518
0x7e711b43aeadb6196741cc02b228d5436f3ac52044a853f3ea823d3d16037a93Approve566012242023-01-30 10:27:137 days 15 hrs ago0x2a98f5b29b205f9f18c7731486096516878589edOUT 0xff970a61a04b1ca14834a43f5de4533ebddb5cc80 ETH0.00003959
0xaa6ce41ed2cb4ed2b7d38686c4df05f16792d7ef7b1a91069c8ea9e59f57259bSwap Exact Token...566011472023-01-30 10:26:487 days 15 hrs ago0x2a98f5b29b205f9f18c7731486096516878589edOUT 0x7bfd7192e76d950832c77bb412aae841049d8d9b0 ETH0.00010028
0x91a2d48506dc0630d7c4896bd1b3175335f9e9b2a1e8bc130bc624fa417faa3cApprove566010062023-01-30 10:26:037 days 15 hrs ago0x2a98f5b29b205f9f18c7731486096516878589edOUT Buffer Finance: BFR Token0 ETH0.00003992
0xd36c14c9ba44927a1da665c11adaffd223e86b37708c362edb523944fc58496cUnstake Bfr566009282023-01-30 10:25:347 days 15 hrs ago0x2a98f5b29b205f9f18c7731486096516878589edOUT 0xbd5fbb3b2610d34434e316e1babb9c3751567b670 ETH0.0000886
0x57992942da692ace593ce2a51be3c4a76f60e25e19480009b61e55857ba00388Stake Bfr566006612023-01-30 10:24:137 days 15 hrs ago0x2a98f5b29b205f9f18c7731486096516878589edOUT 0xbd5fbb3b2610d34434e316e1babb9c3751567b670 ETH0.00008545
0xfd2e827019e928a38426e7059b7ce19948f9045b4400a6fc957651b860c5955eApprove566006392023-01-30 10:24:077 days 15 hrs ago0x2a98f5b29b205f9f18c7731486096516878589edOUT Buffer Finance: BFR Token0 ETH0.00004084
0x277978d11e0ee06012c4867648529fb0278bac05105b567207d0b525301b01eaSwap Exact Token...566005422023-01-30 10:23:347 days 15 hrs ago0x2a98f5b29b205f9f18c7731486096516878589edOUT 0x7bfd7192e76d950832c77bb412aae841049d8d9b0 ETH0.00010824
0xa0f789428180cf4f150089f5f52088f91aaa5fc350d19bf01903e061bef7ab96Approve566004642023-01-30 10:23:087 days 15 hrs ago0x2a98f5b29b205f9f18c7731486096516878589edOUT 0xff970a61a04b1ca14834a43f5de4533ebddb5cc80 ETH0.00004142
0x3d5bc8d4ffb9e770ae74d13f28c19f1d66435c3b3eebb781d3ceffd6b7da3d6cSwap Exact AVAX ...566004062023-01-30 10:22:517 days 15 hrs ago0x2a98f5b29b205f9f18c7731486096516878589edOUT 0x7bfd7192e76d950832c77bb412aae841049d8d9b0.0015 ETH0.00009498
0xb5ab6661e0a17487870a3178486e1199572c31419c603c58b0420983f5e8863fSwap Exact Token...566002552023-01-30 10:22:077 days 15 hrs ago0x2a98f5b29b205f9f18c7731486096516878589edOUT 0x7bfd7192e76d950832c77bb412aae841049d8d9b0 ETH0.00009395
0x70a17681ec9dfd61876558063eabc06dcb29e7ffb56c1c816b8e212e032c4326Approve566000322023-01-30 10:20:587 days 15 hrs ago0x2a98f5b29b205f9f18c7731486096516878589edOUT 0x82af49447d8a07e3bd95bd0d56f35241523fbab10 ETH0.00004076
0xbe1e7b962e9109a7758060416b6bea3050c7bf651e330b982c1b93cc0ccf663dClaim565996112023-01-30 10:18:557 days 15 hrs ago0x2a98f5b29b205f9f18c7731486096516878589edOUT Galxe: NFT Space Station0 ETH0.00008956
0x2be59ef20af1cacfa1a532afe1afd0f410e523b6d33cde74d740a497e1211a4fDeposit562730972023-01-29 4:15:188 days 21 hrs ago0x2a98f5b29b205f9f18c7731486096516878589edOUT0xa5adc5484f9997fbf7d405b9aa62a7d88883c3450 ETH0.00008482
0xfbac9ba7597287acaf23a2d3da567da38cd4c9aa1300ab2ba946ec0a57e05df5Approve562730432023-01-29 4:14:588 days 21 hrs ago0x2a98f5b29b205f9f18c7731486096516878589edOUT 0xff970a61a04b1ca14834a43f5de4533ebddb5cc80 ETH0.00003769
0x4535fad867484047ae8d72be2a9d698105fdbe15a2c58995d3991a46a02d8626Deposit562728332023-01-29 4:13:238 days 21 hrs ago0x2a98f5b29b205f9f18c7731486096516878589edOUT Stargate Finance: LP Staking0 ETH0.000043
0x878b710bea1f30bf269888d2931fd1ecf34df3df1fd6fa8df0c96dc138b61538Approve562727972023-01-29 4:13:118 days 21 hrs ago0x2a98f5b29b205f9f18c7731486096516878589edOUTStargate Finance: S*USDC Token0 ETH0.00003631
0x6cc4cbb9d39f99b60ebad396f474c581a0f3599bd458bc8ac692399dd622a390Add Liquidity562727332023-01-29 4:12:438 days 21 hrs ago0x2a98f5b29b205f9f18c7731486096516878589edOUTStargate Finance: Router0 ETH0.00006755
0x2ab2de19037e68eafb9375f78ad6f84e5dab4f9d2b0567abec6bccc9878e1151Approve562727262023-01-29 4:12:398 days 21 hrs ago0x2a98f5b29b205f9f18c7731486096516878589edOUT 0xff970a61a04b1ca14834a43f5de4533ebddb5cc80 ETH0.00003769
0x92e499535edb644fc5543e253f206d1a964ddf7f00b0ed314c2a0cfa59e2d756Join Pool562726482023-01-29 4:12:018 days 21 hrs ago0x2a98f5b29b205f9f18c7731486096516878589edOUT Balancer: Vault0 ETH0.00009978
0xea3ca74b48d9d9b3a6b84736225a1c6bc8cccfd60bf266d7b301dc64c1c1352bSwap562725592023-01-29 4:11:278 days 22 hrs ago0x2a98f5b29b205f9f18c7731486096516878589edOUT Balancer: Vault0 ETH0.00008505
[ Download CSV Export 
Latest 25 internal transaction
Parent Txn Hash Block From To Value
0xe630d6f09b91c89c251a96e743288d1978f452ff0b78fe5ce12da0f64b6f0cc4500314682022-12-31 15:08:5737 days 11 hrs ago SushiSwap: Router0x2a98f5b29b205f9f18c7731486096516878589ed0.009950997507476394 ETH
0x14daab80bf7ed849a060d4d811af085449294d81233c8f20f80a4f543c0c5ab5500294702022-12-31 14:57:5037 days 11 hrs ago 0xd9988b4b5bbc53a794240496cfa9bf5b1f8e05230x2a98f5b29b205f9f18c7731486096516878589ed0.00084026971288141 ETH
0x7a6077d86810633c73173d6a55aa8a2be9b9fc114945f0411bbe42f74515ad87499380692022-12-31 5:18:0237 days 20 hrs ago 0xd9988b4b5bbc53a794240496cfa9bf5b1f8e05230x2a98f5b29b205f9f18c7731486096516878589ed0.000837713864590161 ETH
0xd941e0f6e36aff7d74c0a589c5617e01163deb8dd8ed6d2c706dbf92f8dd5ae9499376802022-12-31 5:14:3037 days 20 hrs ago SushiSwap: Router0x2a98f5b29b205f9f18c7731486096516878589ed0.000010141567110164 ETH
0x04e3f9a014283e5f11ee697c63551928e1070d2ce980b02a27cb74a91820700f393218182022-11-19 13:09:4579 days 13 hrs ago Across Protocol: Arbitrum Spoke Pool V20x2a98f5b29b205f9f18c7731486096516878589ed0.000956132055426975 ETH
0xc947285f124f499d94193fa0cc9bd47d4e005d66bdaee0f34d9b960a8437cbb5372125262022-11-11 12:39:2987 days 13 hrs ago Uniswap V3: Router 20x2a98f5b29b205f9f18c7731486096516878589ed0.007846735250189945 ETH
0x337e2a1d3e0fb7ebca12a4250c2ec714f9786376abf382482cf6c2a40f84b0a6367828112022-11-10 1:52:3189 days 19 mins ago 0x998ef16ea4111094eb5ee72fc2c6f4e6e86476660x2a98f5b29b205f9f18c7731486096516878589ed0.00261625 ETH
0xa4b8818d7b34606c20e1926a9617742949527efc5f623afc5acd6045c68fecf7367708792022-11-10 0:49:0189 days 1 hr ago SushiSwap: Router0x2a98f5b29b205f9f18c7731486096516878589ed0.000000030492060257 ETH
0x35b3d16d1631a8e6e7030e6b18b0b84720a9b842909b250c17d627771aa15454364814132022-11-09 2:23:2589 days 23 hrs ago SushiSwap: Router0x2a98f5b29b205f9f18c7731486096516878589ed0.002187715803785043 ETH
0x15fbf1d5782b11a65db0fc7c8ce692152dd8f9afc0aceee455ae2067a9269eb4345895612022-11-02 1:16:1097 days 55 mins ago Across Protocol: Arbitrum Spoke Pool V20x2a98f5b29b205f9f18c7731486096516878589ed0.12570903414652498 ETH
0xb4d4d9e1fd98e17deaef252bd7bf957fdd9d23a180ab97ffcd753b208b764956314439062022-10-21 4:43:01108 days 21 hrs ago Uniswap V3: Positions NFT0x2a98f5b29b205f9f18c7731486096516878589ed0.000000017837151664 ETH
0x06874e0721e1fff69214701386f309ad59e2d2b5197fa9b53ec2eac66e42d0d1314435442022-10-21 4:40:20108 days 21 hrs ago Uniswap V3: Positions NFT0x2a98f5b29b205f9f18c7731486096516878589ed0.000012945053853512 ETH
0xa080e7e8e317da43c3655c2cf61ee45bae8f8e6621cf3117972de42970f268b6314434232022-10-21 4:39:26108 days 21 hrs ago Uniswap V3: Positions NFT0x2a98f5b29b205f9f18c7731486096516878589ed0.002811102975604619 ETH
0x041ed61809425402b7a53a8dd3f1ed6c4f4dea3afbb851dc30765fbd78b47672314429732022-10-21 4:36:08108 days 21 hrs ago Uniswap V3: Router 20x2a98f5b29b205f9f18c7731486096516878589ed0.000077577374563062 ETH
0x6ffde4dd48cbcc6cc46a45cf18a714736a8ed72c01126df9060fdcdd8ad2128f288676102022-10-07 10:32:35122 days 15 hrs ago 0x64ca46508ad4559e1fd94b3cf48f3164b4a77e420x2a98f5b29b205f9f18c7731486096516878589ed0.000001160710246372 ETH
0x960c25015d7fe884896542578084f5081d74f0c66d9ac1f9ca1fce7ea2dff597283108442022-10-04 9:54:56125 days 16 hrs ago Across Protocol: Arbitrum Spoke Pool V20x2a98f5b29b205f9f18c7731486096516878589ed0.000569866195645818 ETH
0xe5aff04fce0d5d5e8d5fb7d2c1a757b585faea77426f65e4ee949163023e81df277787242022-10-01 12:43:28128 days 13 hrs ago 0x2b2e0ea5e0b698252ae3c740b6e73415223fb5af0x2a98f5b29b205f9f18c7731486096516878589ed0.063773409489661885 ETH
0x7b1d478c46ea2f86379590ae19060030b9a3b0fd162b53a345cca51fb4f3f860272407542022-09-28 14:59:51131 days 11 hrs ago SushiSwap: Router0x2a98f5b29b205f9f18c7731486096516878589ed0.000000000309588015 ETH
0x5b3ce5f653755b10aa027a5152bc5edf45ebf9c9930f53c336e57e0532d6a68e270773482022-09-28 0:17:19132 days 1 hr ago Multichain: Router V60x2a98f5b29b205f9f18c7731486096516878589ed0.011451845537649384 ETH
0xaa4d4fc3dec28812076c4dd68a9eb68ed3b4b842ec179a4461215a2a1db7e4f7255077632022-09-20 15:05:43139 days 11 hrs ago Fuji DAO: Fliquidator0x2a98f5b29b205f9f18c7731486096516878589ed0.007100737886898855 ETH
0xf70ab757f5c8b6046a3fbccd70ab1d50c6ab740fbcf3ffe08328ad8565f791cd238594812022-09-10 0:54:30150 days 1 hr ago Uniswap V3: Router 20x2a98f5b29b205f9f18c7731486096516878589ed0.000000010096563925 ETH
0x2d6d0874a79aef07cf4908afdc9af817396db5d8d5df2d89c8447dd82dde3a29238591422022-09-10 0:51:14150 days 1 hr ago Across Protocol: Arbitrum Spoke Pool V20x2a98f5b29b205f9f18c7731486096516878589ed0.000945780646191889 ETH
0x01f759572097f0657f5dc508d471f0da14c1290b6e3cc67b422775d0663971cf230489872022-09-06 0:20:58154 days 1 hr ago GMX: Router0x2a98f5b29b205f9f18c7731486096516878589ed0.0006088004 ETH
0xbd3998b4e1776db54b8c69c0a9151177e8a30b9543618b65d4fec649cdf4d834230481902022-09-06 0:15:00154 days 1 hr ago Across Protocol: Arbitrum Spoke Pool V20x2a98f5b29b205f9f18c7731486096516878589ed0.00016118362927779 ETH
0x53960dad873d3256fd3fbb2b31e19a8351f6d7ab320ca9bf9b1f5c4dc5fcc1ed215190592022-08-27 9:34:50163 days 16 hrs ago SushiSwap: Router0x2a98f5b29b205f9f18c7731486096516878589ed0.000000000000098513 ETH
[ Download CSV Export 
Loading

Contract Name:
0 ETH

Compiler Version
0

Optimization Enabled:
0 ETH

Other Settings:
-NA-
Block Transaction Gas Used Reward
Age Block Fee Address BC Fee Address Voting Power Jailed Incoming
Block Uncle Number Difficulty Gas Used Reward
Loading
Make sure to use the "Vote Down" button for any spammy posts, and the "Vote Up" for interesting conversations.